Minot, ND

7:46 AM CDT on July 29, 2015 (GMT -0500)
Why Not Minot | | Change Station
CLOSE
Current Station
Personal Weather Station
Location: Minot, ND
Elevation: 1759 ft
Nearby Weather Stations

Elev 1759 ft 48.22 °N, 101.30 °W | Updated 10 minutes ago

Overcast
Overcast
61.7 °F
Feels Like 61.7 °F
N
4.7
Wind Variable Wind from West

Today
High -- | Low -- °F
--% Chance of Precip.
Yesterday
High -- | Low -- °F
Precip. -- in
6:16 AM 9:25 PM
Waxing Gibbous, 95% visible
Pressure 29.86 in
Visibility 10.0 miles
Clouds Overcast 12000 ft
Dew Point 54 °F
Humidity 75%
Rainfall 0.00 in
Snow Depth Not available.
UV 0 out of 12
Pollen 7.60 out of 12
Air Quality Not available.
Flu Activity Not available.
METAR KMOT 291154Z AUTO 25015KT 10SM OVC120 16/11 A2985 RMK AO2 SLP109 60000 70001 T01610106 10178 20161 51024

More Conditions Fewer Conditions

Pressure 29.86 in
Visibility 10.0 miles
Clouds Overcast 12000 ft
Dew Point 54 °F
Humidity 75%
Rainfall 0.00 in
Snow Depth Not available.
UV 0 out of 12
Pollen 7.60 out of 12
Air Quality Not available.
Flu Activity Not available.
METAR KMOT 291154Z AUTO 25015KT 10SM OVC120 16/11 A2985 RMK AO2 SLP109 60000 70001 T01610106 10178 20161 51024

More Conditions Fewer Conditions

10-Day Weather Forecast

×

Almanac

Astronomy

Jul. 29, 2015 Rise Set
Actual Time
Civil Twilight
Nautical Twilight
Astronomical Twilight
Moon
Length of Visible Light
Length of Day
Tomorrow will be .
, % of the Moon is Illuminated

Today's Extremes

State Highs State Lows

Community

WunderPhotos

Upload Photos

1,842,089 photos uploaded!

WunderBlogs® & News

Nearby

Air Quality

  Air Quality AQ Index Pollutant
Not available.

Snow Depth

Station Depth Elevation

Earthquake Activity

City Distance Mag. Time & Date
Minimum magnitude displayed is 2.5.

Coastal Water Temperatures

Place Temperature

Stations

Nearby Weather Stations

Station Location Temp. Windchill Dew Point Humidity Wind Precip. Elev Updated Type
                   
Wind Advisory
Statement as of 2:53 AM CDT on July 29, 2015

... Wind Advisory remains in effect until 7 PM CDT this evening...

* timing... through early Wednesday evening.

* Winds... west winds sustained at 30 mph with gusts up to 45 mph.

* Impacts... travel will be hazardous.

Precautionary/preparedness actions...

A Wind Advisory means that sustained winds of 30 mph are
expected. Winds this strong can make driving difficult...
especially for high profile vehicles. Use extra caution.



KS/jjs